TimePDT,TemperatureF,Dew PointF,Humidity,Sea Level PressureIn,VisibilityMPH,Wind Direction,Wind SpeedMPH,Gust SpeedMPH,PrecipitationIn,Events,Conditions,WindDirDegrees,DateUTC
12:53 AM,39.0,24.1,55,29.99,-9999.0,Calm,Calm,-,N/A,,Unknown,0,2013-03-19 07:53:00
1:53 AM,39.9,18.0,41,29.99,-9999.0,NNW,8.1,-,N/A,,Unknown,340,2013-03-19 08:53:00
2:53 AM,39.0,19.0,45,30.00,-9999.0,East,3.5,-,N/A,,Unknown,100,2013-03-19 09:53:00
3:53 AM,39.0,18.0,43,30.00,-9999.0,Calm,Calm,-,N/A,,Unknown,0,2013-03-19 10:53:00
4:53 AM,37.9,19.9,48,30.01,-9999.0,Calm,Calm,-,N/A,,Unknown,0,2013-03-19 11:53:00
5:53 AM,37.0,23.0,57,30.04,-9999.0,Calm,Calm,-,N/A,,Unknown,0,2013-03-19 12:53:00
6:53 AM,36.0,24.1,62,30.07,-9999.0,Calm,Calm,-,N/A,,Unknown,0,2013-03-19 13:53:00
7:53 AM,37.0,24.1,59,30.09,-9999.0,Calm,Calm,-,N/A,,Unknown,0,2013-03-19 14:53:00
8:53 AM,45.0,17.1,33,30.09,-9999.0,Calm,Calm,-,N/A,,Unknown,0,2013-03-19 15:53:00
9:53 AM,46.0,21.9,39,30.09,-9999.0,SSW,3.5,-,N/A,,Unknown,200,2013-03-19 16:53:00
10:53 AM,48.0,21.9,36,30.08,-9999.0,South,5.8,-,N/A,,Unknown,170,2013-03-19 17:53:00
11:53 AM,51.1,21.9,32,30.06,-9999.0,SW,6.9,-,N/A,,Unknown,230,2013-03-19 18:53:00
12:53 PM,52.0,23.0,32,30.05,-9999.0,Variable,6.9,-,N/A,,Unknown,0,2013-03-19 19:53:00
1:53 PM,54.0,24.1,31,30.02,-9999.0,WNW,5.8,-,N/A,,Unknown,290,2013-03-19 20:53:00
2:53 PM,54.0,24.1,31,30.01,-9999.0,SSW,6.9,-,N/A,,Unknown,200,2013-03-19 21:53:00
3:53 PM,57.0,24.1,28,29.98,-9999.0,SSW,5.8,-,N/A,,Unknown,210,2013-03-19 22:53:00
4:53 PM,57.0,25.0,29,29.96,-9999.0,East,6.9,-,N/A,,Unknown,100,2013-03-19 23:53:00
5:53 PM,55.9,25.0,30,29.96,-9999.0,South,8.1,-,N/A,,Unknown,180,2013-03-20 00:53:00
6:53 PM,54.0,26.1,34,29.97,-9999.0,South,10.4,-,N/A,,Unknown,180,2013-03-20 01:53:00
7:53 PM,51.1,27.0,39,29.99,-9999.0,South,6.9,-,N/A,,Unknown,190,2013-03-20 02:53:00
8:53 PM,48.9,26.1,41,29.96,-9999.0,South,5.8,-,N/A,,Unknown,180,2013-03-20 03:53:00
9:53 PM,46.9,27.0,46,29.95,-9999.0,South,12.7,-,N/A,,Unknown,170,2013-03-20 04:53:00
10:53 PM,48.9,26.1,41,29.93,-9999.0,South,9.2,-,N/A,,Unknown,190,2013-03-20 05:53:00
11:53 PM,48.9,26.1,41,29.92,-9999.0,SSE,12.7,-,N/A,,Unknown,160,2013-03-20 06:53:00